Arrange by
Date
Date
Title
Job #
Location
Descending   Sign Up for Job Agent Sign-up for Job Agent Jobs through RSS RSS Feed
Date Title Job # Location
04/07/2020 IT - Developer - SAP Finance HANA ABAP Developer : 20-01060 20-01060 Woodland Hills, California
04/07/2020 Engineer-IT I(US) : 20-01144 20-01144 San Jose, California
04/07/2020 Oracle Customer Data Management Lead : 20-01135 20-01135 Milpitas, California
04/07/2020 Business Analyst II : 20-01140 20-01140 Palo Alto, California
04/07/2020 M&A Data Delivery Manager : 20-01142 20-01142 Austin, Texas
04/07/2020 IT - Web Developer/Full Stack Engineer : 20-00910 20-00910 Woodland Hills, California
04/07/2020 Scrum Master II (Data Warehouse) : 20-01141 20-01141 San Rafael, California
04/07/2020 Business Systems Analyst II : 20-00466 20-00466 San Rafael, California
04/07/2020 BO Developer II : 20-00464 20-00464 San Rafael, California
04/07/2020 Client Services Advisor : 19-04268 19-04268 Tempe, Arizona
04/06/2020 Scrum Master : 20-01132 20-01132 Santa Clara, California
04/06/2020 Business Analyst : 20-01139 20-01139 Salt Lake City, Utah
04/06/2020 SalesForce Developer : 20-01120 20-01120 Seattle, Washington
04/06/2020 Developer Client Server Sr. (Fullstack Software Engineer) : 20-01084 20-01084 Portland, Oregon
04/06/2020 Senior Software Development Engineer : 20-01079 20-01079 Santa Clara,, California
04/06/2020 Software Dev Engineer II : 20-01030 20-01030 Champaign, Illinois
04/06/2020 Software Engineer III : 20-01019 20-01019 Hillsboro, Oregon
04/06/2020 Director of Product Management - eCommerce : 20-00893 20-00893 Charlotte, North Carolina
04/06/2020 Guidewire PolicyCenter Developer II : 20-00908 20-00908 Oklahoma City, Oklahoma
04/06/2020 Enterprise Data Architect - Finance : 20-00873 20-00873 Woodland Hills, California
04/06/2020 Senior Application Developer for Print Fulfillment : 20-00874 20-00874 Woodland hills, California
04/06/2020 Technical Project Manager IV : 20-00876 20-00876 Woodland Hills, California
04/06/2020 Software Engineer : 19-03220 20-00722 Denver, Colorado
04/06/2020 GIS Security Engineer (Data Security Engineer) : 20-00756 20-00756 San Jose, California
04/06/2020 Business Operations Manager : 20-00212 20-00212 San Mateo, California
04/06/2020 Senior Business System Analyst : 19-05430 19-05430 Sunnyvale, California
04/06/2020 Senior ERP Developer SAP/Oracle : 19-05431 19-05431 Sunnyvale, California
04/06/2020 Senior full Stack Python Developer : 19-05275 19-05275 Los Angeles, California
04/06/2020 Senior Data Integration Analyst : 19-05436 19-05436 Sunnyvale, California
04/06/2020 Senior ERP Program Manager : 19-05429 19-05429 Sunnyvale, California
Page:  1 2 3 4 5 6 Next     | 1 to 30 of 171 result(s)     records per page